FW5819 Weather Reports


Display with metric or nautical units.
time (UTC)temp
F
wind
direction
speed
MPH
gust
MPH
rain 1hr
in
rain 24hr
in
rain mn
in
humidity
%
barometer
mb
20260506204534 53 316 1.0 4.0 0.00 0.92 0.16 68 1012.4
20260506203037 53 36 3.0 7.0 0.00 0.92 0.16 69 1012.5
20260506201536 53 15 3.0 9.0 0.00 0.92 0.16 68 1012.6
20260506200035 53 336 2.0 5.0 0.00 0.92 0.16 67 1012.5
20260506194535 54 38 3.0 9.0 0.00 1.13 0.16 65 1012.4
20260506193034 54 340 3.0 8.0 0.00 1.13 0.16 63 1012.6
20260506191532 55 256 4.0 8.0 0.00 1.13 0.16 64 1012.3
20260506190037 54 284 2.0 10.0 0.00 1.13 0.16 67 1012.4
20260506184535 54 38 4.0 9.0 0.00 1.17 0.16 68 1012.4
20260506183035 54 338 3.0 6.0 0.00 1.17 0.16 74 1012.8
20260506181544 53 32 2.0 9.0 0.00 1.17 0.16 76 1012.8
20260506180055 52 340 4.0 10.0 0.00 1.17 0.16 74 1012.8
20260506174533 52 331 4.0 10.0 0.00 1.17 0.16 79 1012.9
20260506173040 52 43 4.0 9.0 0.00 1.17 0.16 79 1013.0
20260506171535 51 24 4.0 12.0 0.00 1.17 0.16 78 1012.7
20260506170035 52 44 4.0 8.0 0.00 1.17 0.16 79 1012.9
20260506164534 51 28 6.0 14.0 0.00 1.17 0.16 81 1013.0
20260506163037 51 32 4.0 10.0 0.00 1.17 0.16 83 1012.7
20260506161535 51 33 5.0 9.0 0.00 1.17 0.16 83 1012.4
20260506160037 50 57 4.0 11.0 0.00 1.17 0.16 83 1012.3
20260506154535 50 74 5.0 9.0 0.00 1.17 0.16 84 1012.2
20260506153032 50 80 4.0 9.0 0.00 1.17 0.16 85 1012.3
20260506151532 50 294 5.0 10.0 0.00 1.17 0.16 86 1011.8
20260506150032 50 346 5.0 12.0 0.00 1.17 0.16 88 1011.4
20260506144554 50 64 5.0 13.0 0.00 1.17 0.16 89 1011.3
20260506143034 49 338 5.0 12.0 0.00 1.17 0.16 93 1011.3
20260506141536 50 304 1.0 8.0 0.00 1.17 0.16 94 1011.2
20260506140034 49 336 2.0 6.0 0.00 1.17 0.16 95 1010.9
20260506134534 48 304 1.0 7.0 0.00 1.17 0.16 95 1010.8
20260506133041 47 298 1.0 9.0 0.00 1.17 0.16 95 1010.9
20260506131536 47 284 1.0 4.0 0.00 1.17 0.16 95 1010.6
20260506130037 46 0 0.0 3.0 0.00 1.17 0.16 96 1010.4
20260506124536 45 298 1.0 3.0 0.00 1.17 0.16 95 1010.3
20260506123034 45 0 0.0 1.0 0.00 1.17 0.16 96 1010.0
20260506121533 45 235 0.0 1.0 0.00 1.17 0.16 95 1010.1
20260506120033 44 0 0.0 3.0 0.00 1.17 0.16 95 1009.7
20260506114535 45 0 0.0 1.0 0.00 1.17 0.16 95 1010.1
20260506113035 45 0 0.0 1.0 0.00 1.17 0.16 96 1009.8
20260506111533 45 0 0.0 0.0 0.00 1.17 0.16 96 1009.2
20260506110039 44 0 0.0 0.0 0.00 1.17 0.16 96 1009.0
20260506104535 44 0 0.0 1.0 0.00 1.17 0.16 96 1008.6
20260506103037 44 0 0.0 0.0 0.00 1.17 0.16 96 1008.6
20260506101536 44 0 0.0 3.0 0.01 1.17 0.16 95 1008.5
20260506100032 44 293 1.0 2.0 0.01 1.17 0.16 95 1009.1
20260506094531 44 321 0.0 2.0 0.01 1.17 0.16 95 1008.0
20260506093038 44 0 0.0 0.0 0.01 1.17 0.16 95 1008.1
20260506091547 44 0 0.0 0.0 0.01 1.16 0.15 95 1008.7
20260506090039 44 0 0.0 0.0 0.02 1.16 0.15 95 1009.0
20260506084538 44 257 0.0 2.0 0.03 1.16 0.15 95 1009.0
20260506083036 45 302 0.0 1.0 0.05 1.16 0.15 95 1008.6
20260506081534 45 0 0.0 1.0 0.05 1.16 0.14 95 1008.3
20260506073032 45 65 0.0 2.0 0.04 1.12 0.10 95 1008.7
20260506071532 45 0 0.0 2.0 0.03 1.11 0.09 95 1008.4
20260506061536 46 0 0.0 0.0 0.02 1.07 0.05 95 1008.2
20260506044541 46 0 0.0 0.0 0.03 1.04 0.02 95 1008.7
20260506043035 46 0 0.0 1.0 0.03 1.03 0.01 95 1008.9
20260506041547 46 0 0.0 0.0 0.03 1.02 0.00 95 1009.1
20260506040040 46 0 0.0 0.0 0.05 1.02 0.00 95 1009.1
20260506034536 46 0 0.0 1.0 0.06 1.01 1.01 95 1009.4
20260506033035 47 0 0.0 0.0 0.08 1.00 1.00 94 1009.5
20260506031535 48 300 2.0 5.0 0.10 0.99 0.99 95 1009.6
20260506030035 48 0 0.0 2.0 0.13 0.97 0.97 95 1009.5
20260506024540 48 0 0.0 1.0 0.15 0.95 0.95 95 1009.7
20260506023036 48 0 0.0 2.0 0.13 0.92 0.92 95 1009.7
20260506021546 49 314 0.0 2.0 0.11 0.89 0.89 95 1009.4
20260506020035 49 55 1.0 4.0 0.06 0.83 0.83 95 1009.2
20260506014532 49 12 1.0 3.0 0.04 0.80 0.80 95 1009.0
20260506013034 49 0 0.0 0.0 0.03 0.79 0.79 95 1008.9
20260506011558 49 0 0.0 0.0 0.04 0.78 0.78 95 1008.7
20260506010034 49 0 0.0 0.0 0.05 0.77 0.77 95 1008.8
20260506004541 49 0 0.0 0.0 0.06 0.76 0.76 95 1008.9
20260506003035 49 0 0.0 2.0 0.09 0.76 0.76 94 1008.8
20260506001535 49 0 0.0 3.0 0.07 0.74 0.74 94 1008.8
20260506000030 49 42 1.0 3.0 0.06 0.72 0.72 94 1008.4
20260505234534 49 320 0.0 2.0 0.05 0.70 0.70 94 1008.1
20260505233036 49 321 1.0 2.0 0.08 0.67 0.67 94 1008.2
20260505231540 49 38 0.0 5.0 0.12 0.67 0.67 94 1008.3
20260505230035 49 34 1.0 4.0 0.14 0.66 0.66 94 1008.3
20260505224532 49 327 2.0 5.0 0.16 0.64 0.64 93 1009.0
20260505223035 50 33 2.0 5.0 0.15 0.58 0.58 93 1008.8
20260505221534 50 299 1.0 6.0 0.13 0.55 0.55 93 1009.0
20260505220052 51 330 3.0 7.0 0.13 0.52 0.52 93 1008.5
20260505214539 51 340 0.0 3.0 0.12 0.48 0.48 93 1008.2
20260505213038 52 342 0.0 3.0 0.11 0.44 0.44 93 1007.8
20260505211538 52 46 3.0 9.0 0.12 0.42 0.42 92 1007.8
20260505210039 53 328 2.0 10.0 0.12 0.38 0.38 92 1007.9